[[{"header":{"parameterUnit":"m.s-1","parameterCategory":1,"la1":30.2992,"la2":30.254,"lo1":-89.0895,"lo2":-89.0443,"dy":0.0025,"dx":0.0025,"nx":19,"ny":19,"refTime":"2026-04-07T03:00:00:Z","depth":0,"parameterNumber":2,"parameterNumberName":"U-component_of_WINDS"},"data":[0,0,0,-4.0456,-4.046,-4.0664,-4.0665,-4.0967,-4.097,0,0,0,0,0,0,0,0,0,0,0,-4.042,-4.0422,-4.0455,-4.0461,-4.0664,-4.0665,-4.0966,-4.097,0,0,0,0,0,0,0,0,0,0,0,-4.0418,-4.0422,-4.0425,-4.0462,-4.0664,-4.0665,-4.0966,-4.0797,0,0,0,0,0,0,0,0,0,0,-4.0593,-4.0583,-4.0421,-4.0425,-4.0463,-4.0664,-4.0665,-4.0789,-4.0808,-4.0892,0,-4.0972,0,-4.0976,-4.0993,-4.0994,0,0,0,-4.0443,-4.0567,-4.06,-4.0426,-4.0465,-4.0664,-4.0567,-4.0799,-4.0821,-4.0918,-4.0976,-4.0986,-4.0981,-4.0995,-4.0997,-4.154,-4.1543,0,0,-4.0432,-4.047,-4.0585,-4.0615,-4.0585,-4.0561,-4.0574,-4.0812,-4.0878,-4.0977,-4.0993,-4.0986,-4.0997,-4.1,-4.1536,-4.154,0,0,0,-4.0412,-4.0463,-4.0488,-4.0604,-4.0637,-4.0567,-4.0582,-4.0868,-4.0873,-4.0996,-4.099,-4.0999,-4.1003,-4.1533,-4.1538,-4.1744,0,0,0,-4.0404,-4.0451,-4.0484,-4.051,-4.0634,-4.0755,-4.0634,-4.0856,-4.0882,-4.0988,-4.0999,-4.1007,-4.1529,-4.1535,-4.173,-4.1837,0,0,0,-4.0398,-4.0449,-4.0487,-4.0511,-4.06,-4.075,-4.0768,-4.0861,-4.088,-4.0994,-4.1008,-4.1526,-4.1534,-4.1718,-4.1817,-4.1995,0,0,0,-4.0403,-4.0666,-4.0491,-4.0782,-4.0599,-4.0874,-4.0766,-4.0969,-4.1092,-4.1001,-4.1529,-4.1537,-4.1714,-4.1804,-4.1982,-4.2156,-4.223,0,0,-4.0757,-4.071,-4.0879,-4.0728,-4.1045,-4.084,-4.1187,-4.1264,-4.124,-4.1441,-4.1454,-4.1735,-4.1816,-4.1992,-4.2622,-4.2681,0,0,0,-4.1004,-4.1127,-4.1202,-4.132,-4.1383,-4.1448,-4.1467,-4.1495,-4.1664,-4.135,-4.1842,-4.1889,-4.1992,-4.2073,-4.2124,-4.2212,-4.1575,-4.1574,-4.1573,-4.1564,-4.1518,-4.1794,-4.1774,-4.1889,-4.1905,-4.1996,-4.2037,-4.1956,-4.2073,-4.2136,-4.2523,-4.262,-4.2657,-4.2749,-4.2217,-4.2218,-4.2219,-4.222,-4.2083,-4.2252,-4.2136,-4.2364,-4.2315,-4.2506,-4.2531,-4.2467,-4.264,-4.2472,-4.256,-4.2387,-4.2724,-4.2802,-4.2235,-4.2232,-4.223,-4.2229,-4.2228,-4.245,-4.2523,-4.2551,-4.2717,-4.285,-4.2817,-4.2989,-4.2935,-4.2886,-4.2972,-4.3035,-4.3031,-4.3026,-4.3004,-4.3006,-4.3007,-4.3008,-4.3009,-4.301,-4.2823,-4.2847,-4.2998,-4.3086,-4.3155,-4.3239,-4.3256,-4.3323,-4.3384,-4.3332,-4.3332,-4.3245,-4.2762,-4.2646,-4.3031,-4.3027,-4.3024,-4.3023,-4.3021,-4.3379,-4.3244,-4.3477,-4.3547,-4.3646,-4.3784,-4.371,-4.3851,-4.3898,-4.3985,-4.3876,-4.3526,-4.3476,-4.3436,-4.334,-4.3881,-4.3881,-4.3881,-4.3881,-4.3695,-4.3661,-4.3888,-4.4003,-4.4108,-4.4065,-4.4333,-4.4348,-4.4342,-4.4369,-4.4281,-4.4146,-4.4107,-4.408,-4.4026,-4.3936,-4.4617,-4.4618,-4.4618,-4.4036,-4.401,-4.4249,-4.424,-4.4313,-4.4378,-4.4629,-4.4767,-4.4731,-4.4647,-4.439,-4.4359,-4.4141,-4.4071,-4.399,-4.3907,-4.374,0,0]},{"header":{"parameterUnit":"m.s-1","parameterCategory":1,"la1":30.2992,"la2":30.254,"lo1":-89.0895,"lo2":-89.0443,"dy":0.0025,"dx":0.0025,"nx":19,"ny":19,"refTime":"2026-04-07T03:00:00:Z","depth":0,"parameterNumber":3,"parameterNumberName":"V-component_of_WINDS"},"data":[0,0,0,-4.6476,-4.6479,-4.6577,-4.6577,-4.6711,-4.6713,0,0,0,0,0,0,0,0,0,0,0,-4.6456,-4.6457,-4.6476,-4.6479,-4.6577,-4.6577,-4.6711,-4.6713,0,0,0,0,0,0,0,0,0,0,0,-4.6455,-4.6457,-4.6458,-4.6479,-4.6577,-4.6577,-4.6711,-4.6633,0,0,0,0,0,0,0,0,0,0,-4.6536,-4.6526,-4.6456,-4.6458,-4.648,-4.6577,-4.6577,-4.6629,-4.6638,-4.6672,0,-4.6706,0,-4.6712,-4.6723,-4.6723,0,0,0,-4.6472,-4.6519,-4.6538,-4.6458,-4.6481,-4.6576,-4.6531,-4.6634,-4.6644,-4.6684,-4.6708,-4.6713,-4.6714,-4.6723,-4.6724,-4.6945,-4.6947,0,0,-4.6467,-4.6477,-4.6531,-4.6545,-4.6533,-4.6528,-4.6534,-4.664,-4.6667,-4.6709,-4.6716,-4.6716,-4.6724,-4.6726,-4.6944,-4.6946,0,0,0,-4.6456,-4.6474,-4.649,-4.6539,-4.6557,-4.6531,-4.6538,-4.6662,-4.6666,-4.6717,-4.6718,-4.6725,-4.6727,-4.6943,-4.6945,-4.7021,0,0,0,-4.6452,-4.6467,-4.6488,-4.6495,-4.6555,-4.6611,-4.6558,-4.6659,-4.6671,-4.6717,-4.6725,-4.6729,-4.6941,-4.6944,-4.7016,-4.7055,0,0,0,-4.6446,-4.6467,-4.6484,-4.6496,-4.6539,-4.6609,-4.6619,-4.6661,-4.6672,-4.6723,-4.6729,-4.694,-4.6943,-4.7011,-4.7047,-4.7115,0,0,0,-4.6443,-4.6551,-4.6485,-4.6606,-4.6538,-4.6657,-4.6619,-4.6706,-4.676,-4.6726,-4.6941,-4.6945,-4.701,-4.7042,-4.711,-4.7173,-4.72,0,0,-4.6585,-4.6569,-4.6639,-4.6583,-4.6716,-4.6641,-4.6784,-4.6823,-4.6817,-4.6902,-4.6908,-4.7017,-4.7047,-4.7114,-4.7354,-4.7376,0,0,0,-4.6687,-4.6737,-4.677,-4.6822,-4.6855,-4.6885,-4.69,-4.6914,-4.6986,-4.6864,-4.7061,-4.7078,-4.7116,-4.7146,-4.7165,-4.7196,-4.6959,-4.6959,-4.6959,-4.6903,-4.6891,-4.7004,-4.7003,-4.7054,-4.7068,-4.7106,-4.7127,-4.71,-4.7146,-4.7171,-4.7319,-4.7354,-4.7368,-4.7401,-4.7204,-4.7205,-4.7205,-4.7205,-4.7109,-4.7177,-4.7137,-4.7233,-4.7218,-4.7298,-4.7314,-4.7292,-4.7362,-4.73,-4.7333,-4.7265,-4.7393,-4.742,-4.7211,-4.721,-4.7209,-4.7209,-4.7208,-4.7248,-4.7278,-4.7293,-4.7365,-4.7421,-4.7415,-4.7484,-4.7468,-4.7453,-4.7487,-4.7509,-4.7508,-4.7503,-4.7499,-4.75,-4.75,-4.75,-4.7501,-4.7501,-4.7385,-4.74,-4.7461,-4.7503,-4.7533,-4.7569,-4.7583,-4.7611,-4.7637,-4.762,-4.762,-4.7586,-4.7408,-4.7363,-4.7509,-4.7508,-4.7507,-4.7506,-4.7505,-4.7596,-4.7545,-4.764,-4.7669,-4.7715,-4.777,-4.7749,-4.7807,-4.7828,-4.7861,-4.782,-4.7692,-4.7673,-4.7658,-4.762,-4.7824,-4.7824,-4.7824,-4.7825,-4.7712,-4.7701,-4.7792,-4.784,-4.7885,-4.7875,-4.7978,-4.7988,-4.7991,-4.8002,-4.797,-4.7919,-4.7904,-4.7894,-4.7874,-4.7838,-4.8093,-4.8093,-4.8094,-4.7839,-4.7832,-4.7924,-4.7927,-4.7961,-4.799,-4.8086,-4.814,-4.8132,-4.8104,-4.801,-4.7998,-4.7915,-4.789,-4.7859,-4.7828,-4.7762,0,0]}]]